[ hide orbit diagram ]
For accurate long-term ephemerides, please instead use our Horizons system.This orbit viewer was implemented using two-body methods, and hence should not be used for determining accurate long-term trajectories (over several years or decades) or planetary encounter circumstances.
Orbital Elements at Epoch 2459000.5 (2020-May-31.0) TDB
Reference: JPL 11 (heliocentric ecliptic J2000)
Element | Value | Uncertainty (1-sigma) | Units |
e | .1225237885590615 | 4.3363e-08 | |
a | 2.236789046052574 | 1.8687e-08 | au |
q | 1.962729177922804 | 1.0128e-07 | au |
i | 5.004672636174809 | 6.9664e-06 | deg |
node | 216.2017516943596 | 5.749e-05 | deg |
peri | 276.1171557268112 | 7.1295e-05 | deg |
M | 312.4415260897235 | 4.5409e-05 | deg |
tp | 2459161.921499464882 (2020-Nov-08.42149947) | 0.00015572 | TDB |
period | 1221.900852348432 3.35 | 1.5312e-05 4.192e-08 | d yr |
n | .2946229223984075 | 3.6921e-09 | deg/d |
Q | 2.510848914182345 | 2.0977e-08 | au |
|
| | Orbit Determination Parameters
Additional Information
|
[ show covariance matrix ]
Physical Parameter Table
Parameter |
Symbol |
Value |
Units |
Sigma |
Reference |
Notes |
absolute magnitude |
H |
17.7 |
|
n/a |
MPO397381 |
|
|
382833 (2004 AS5) Discovered 2004-Jan-13 by NEAT at Palomar |
Reference: | Last Updated: 2014-01-21 |
|
|